| time (UTC) | temp C | wind direction | speed KPH | gust KPH | rain 1hr cm | rain 24hr cm | rain mn cm | humidity % | barometer mb |
| 20260906074553 | 27 | 158 | 0.0 | 9.7 | 0.00 | 0.00 | 0.00 | 77 | 1010.2 |
| 20260906073148 | 27 | 155 | 1.6 | 8.0 | 0.00 | 0.00 | 0.00 | 77 | 1010.5 |
| 20260906071547 | 27 | 234 | 0.0 | 4.8 | 0.00 | 0.00 | 0.00 | 77 | 1010.5 |
| 20260906070045 | 27 | 166 | 1.6 | 8.0 | 0.00 | 0.00 | 0.00 | 76 | 1010.8 |
| 20260906064543 | 27 | 160 | 1.6 | 3.2 | 0.00 | 0.00 | 0.00 | 76 | 1010.9 |
| 20260906063046 | 27 | 156 | 0.0 | 6.4 | 0.00 | 0.00 | 0.00 | 75 | 1011.0 |
| 20260906061542 | 27 | 139 | 0.0 | 4.8 | 0.00 | 0.00 | 0.00 | 75 | 1010.8 |
| 20260906060040 | 27 | 142 | 1.6 | 4.8 | 0.00 | 0.00 | 0.00 | 75 | 1010.9 |
| 20260906054558 | 27 | 140 | 0.0 | 3.2 | 0.00 | 0.00 | 0.00 | 74 | 1011.1 |
| 20260906053037 | 27 | 129 | 0.0 | 8.0 | 0.00 | 0.00 | 0.00 | 73 | 1011.0 |
| 20260906051537 | 28 | 115 | 0.0 | 6.4 | 0.00 | 0.00 | 0.00 | 73 | 1011.1 |
| 20260906050039 | 28 | 144 | 1.6 | 8.0 | 0.00 | 0.00 | 0.00 | 73 | 1011.2 |
| 20260906044536 | 28 | 119 | 1.6 | 6.4 | 0.00 | 0.00 | 0.00 | 72 | 1011.4 |
| 20260906043033 | 28 | 121 | 3.2 | 12.9 | 0.00 | 0.00 | 0.00 | 71 | 1011.3 |
| 20260906041532 | 28 | 106 | 3.2 | 11.3 | 0.00 | 0.00 | 0.00 | 70 | 1011.2 |
| 20260906040044 | 28 | 110 | 1.6 | 8.0 | 0.00 | 0.00 | 0.00 | 68 | 1011.1 |
| 20260906034545 | 28 | 155 | 4.8 | 16.1 | 0.00 | 0.00 | 0.00 | 67 | 1011.1 |
| 20260906033031 | 29 | 95 | 6.4 | 12.9 | 0.00 | 0.00 | 0.00 | 66 | 1011.1 |
| 20260906031558 | 29 | 75 | 3.2 | 11.3 | 0.00 | 0.00 | 0.00 | 65 | 1011.0 |
| 20260906030029 | 30 | 101 | 3.2 | 9.7 | 0.00 | 0.00 | 0.00 | 62 | 1010.8 |
| 20260906024550 | 30 | 78 | 3.2 | 9.7 | 0.00 | 0.00 | 0.00 | 59 | 1010.5 |
| 20260906023027 | 30 | 116 | 3.2 | 14.5 | 0.00 | 0.00 | 0.00 | 57 | 1010.1 |
| 20260906021526 | 31 | 44 | 4.8 | 12.9 | 0.00 | 0.00 | 0.00 | 56 | 1009.8 |
| 20260906020028 | 31 | 148 | 9.7 | 22.5 | 0.00 | 0.00 | 0.00 | 55 | 1009.5 |
| 20260906014526 | 31 | 130 | 3.2 | 12.9 | 0.00 | 0.00 | 0.00 | 55 | 1009.2 |
| 20260906013024 | 32 | 86 | 6.4 | 16.1 | 0.00 | 0.00 | 0.00 | 53 | 1009.2 |
| 20260906011524 | 32 | 77 | 4.8 | 16.1 | 0.00 | 0.00 | 0.00 | 53 | 1008.9 |
| 20260906010040 | 32 | 103 | 4.8 | 12.9 | 0.00 | 0.00 | 0.00 | 52 | 1008.9 |
| 20260906004523 | 33 | 107 | 4.8 | 14.5 | 0.00 | 0.00 | 0.00 | 51 | 1008.9 |
| 20260906003022 | 33 | 115 | 6.4 | 16.1 | 0.00 | 0.00 | 0.00 | 50 | 1008.9 |
| 20260906001529 | 33 | 40 | 4.8 | 14.5 | 0.00 | 0.00 | 0.00 | 49 | 1008.8 |
| 20260906000022 | 34 | 140 | 4.8 | 16.1 | 0.00 | 0.00 | 0.00 | 47 | 1008.8 |
| 20260905234520 | 35 | 58 | 4.8 | 11.3 | 0.00 | 0.00 | 0.00 | 42 | 1008.6 |
| 20260905233019 | 35 | 112 | 8.0 | 14.5 | 0.00 | 0.00 | 0.00 | 39 | 1008.5 |
| 20260905231517 | 35 | 346 | 1.6 | 6.4 | 0.00 | 0.00 | 0.00 | 40 | 1008.5 |
| 20260905230030 | 36 | 141 | 3.2 | 14.5 | 0.00 | 0.00 | 0.00 | 39 | 1008.5 |
| 20260905224519 | 36 | 146 | 4.8 | 14.5 | 0.00 | 0.00 | 0.00 | 39 | 1008.5 |
| 20260905223017 | 36 | 315 | 0.0 | 11.3 | 0.00 | 0.00 | 0.00 | 39 | 1008.5 |
| 20260905221513 | 36 | 119 | 1.6 | 9.7 | 0.00 | 0.00 | 0.00 | 39 | 1008.6 |
| 20260905220012 | 36 | 80 | 1.6 | 9.7 | 0.00 | 0.00 | 0.00 | 41 | 1008.6 |
| 20260905214511 | 35 | 239 | 0.0 | 11.3 | 0.00 | 0.00 | 0.00 | 43 | 1008.7 |
| 20260905213009 | 35 | 198 | 1.6 | 9.7 | 0.00 | 0.00 | 0.00 | 42 | 1008.9 |
| 20260905211518 | 35 | 136 | 0.0 | 6.4 | 0.00 | 0.00 | 0.00 | 40 | 1009.1 |
| 20260905210005 | 36 | 91 | 3.2 | 12.9 | 0.00 | 0.00 | 0.00 | 39 | 1009.3 |
| 20260905204504 | 36 | 22 | 4.8 | 14.5 | 0.00 | 0.00 | 0.00 | 40 | 1009.4 |
| 20260905203118 | 36 | 206 | 3.2 | 11.3 | 0.00 | 0.00 | 0.00 | 41 | 1009.7 |
| 20260905201605 | 35 | 25 | 0.0 | 8.0 | 0.00 | 0.00 | 0.00 | 43 | 1009.9 |
| 20260905200058 | 35 | 121 | 0.0 | 11.3 | 0.00 | 0.00 | 0.00 | 43 | 1010.1 |
| 20260905194547 | 35 | 47 | 0.0 | 9.7 | 0.00 | 0.00 | 0.00 | 44 | 1010.3 |
| 20260905193043 | 36 | 121 | 4.8 | 11.3 | 0.00 | 0.00 | 0.00 | 42 | 1010.6 |
| 20260905191540 | 35 | 173 | 3.2 | 8.0 | 0.00 | 0.00 | 0.00 | 44 | 1010.9 |
| 20260905190037 | 35 | 186 | 3.2 | 14.5 | 0.00 | 0.00 | 0.00 | 45 | 1011.1 |
| 20260905184534 | 35 | 157 | 6.4 | 20.9 | 0.00 | 0.00 | 0.00 | 46 | 1011.4 |
| 20260905183036 | 35 | 223 | 1.6 | 11.3 | 0.00 | 0.00 | 0.00 | 47 | 1011.7 |
| 20260905181533 | 35 | 134 | 8.0 | 14.5 | 0.00 | 0.00 | 0.00 | 46 | 1011.9 |
| 20260905180030 | 35 | 347 | 1.6 | 11.3 | 0.00 | 0.00 | 0.00 | 48 | 1012.1 |
| 20260905174529 | 34 | 189 | 3.2 | 14.5 | 0.00 | 0.00 | 0.00 | 48 | 1012.4 |
| 20260905173049 | 34 | 148 | 4.8 | 11.3 | 0.00 | 0.00 | 0.00 | 50 | 1012.6 |
| 20260905171524 | 34 | 124 | 6.4 | 17.7 | 0.00 | 0.00 | 0.00 | 51 | 1012.7 |
| 20260905170019 | 33 | 80 | 1.6 | 14.5 | 0.00 | 0.00 | 0.00 | 53 | 1012.9 |
| 20260905164516 | 33 | 102 | 4.8 | 16.1 | 0.00 | 0.00 | 0.00 | 55 | 1013.0 |
| 20260905163014 | 32 | 155 | 6.4 | 16.1 | 0.00 | 0.00 | 0.00 | 55 | 1013.0 |
| 20260905161509 | 32 | 136 | 3.2 | 8.0 | 0.00 | 0.00 | 0.00 | 61 | 1013.1 |
| 20260905160006 | 31 | 173 | 3.2 | 8.0 | 0.00 | 0.00 | 0.00 | 63 | 1012.9 |
| 20260905154504 | 31 | 176 | 4.8 | 11.3 | 0.00 | 0.00 | 0.00 | 63 | 1012.9 |
| 20260905153100 | 31 | 169 | 4.8 | 11.3 | 0.00 | 0.00 | 0.00 | 67 | 1012.9 |
| 20260905151601 | 30 | 198 | 3.2 | 11.3 | 0.00 | 0.00 | 0.00 | 68 | 1012.9 |
| 20260905150053 | 30 | 135 | 1.6 | 9.7 | 0.00 | 0.00 | 0.00 | 73 | 1013.0 |
| 20260905144552 | 28 | 188 | 3.2 | 9.7 | 0.00 | 0.03 | 0.00 | 76 | 1013.0 |
| 20260905143049 | 27 | 123 | 4.8 | 8.0 | 0.00 | 0.03 | 0.00 | 82 | 1013.0 |
| 20260905141541 | 27 | 126 | 3.2 | 8.0 | 0.00 | 0.03 | 0.00 | 88 | 1013.0 |
| 20260905140038 | 26 | 142 | 4.8 | 11.3 | 0.00 | 0.03 | 0.00 | 90 | 1012.9 |
| 20260905134550 | 25 | 157 | 1.6 | 4.8 | 0.00 | 0.05 | 0.00 | 93 | 1012.8 |
| 20260905133035 | 25 | 173 | 3.2 | 6.4 | 0.00 | 0.05 | 0.00 | 94 | 1012.8 |
| 20260905131532 | 24 | 270 | 0.0 | 1.6 | 0.00 | 0.05 | 0.00 | 94 | 1012.6 |
| 20260905130030 | 23 | 270 | 0.0 | 0.0 | 0.00 | 0.05 | 0.00 | 93 | 1012.4 |
| 20260905124537 | 23 | 270 | 0.0 | 0.0 | 0.00 | 0.08 | 0.00 | 92 | 1012.3 |
| 20260905123028 | 23 | 270 | 0.0 | 0.0 | 0.00 | 0.08 | 0.00 | 91 | 1012.1 |
| 20260905121529 | 23 | 270 | 0.0 | 0.0 | 0.00 | 0.08 | 0.00 | 90 | 1011.9 |
| 20260905120026 | 23 | 270 | 0.0 | 0.0 | 0.00 | 0.08 | 0.00 | 90 | 1011.7 |
| 20260905114525 | 23 | 270 | 0.0 | 0.0 | 0.00 | 0.08 | 0.00 | 90 | 1011.8 |
| 20260905113024 | 23 | 270 | 0.0 | 0.0 | 0.00 | 0.08 | 0.00 | 90 | 1011.6 |
| 20260905111522 | 23 | 270 | 0.0 | 0.0 | 0.00 | 0.08 | 0.00 | 89 | 1011.4 |
| 20260905110020 | 23 | 270 | 0.0 | 0.0 | 0.00 | 0.08 | 0.00 | 88 | 1011.4 |
| 20260905104520 | 24 | 270 | 0.0 | 0.0 | 0.00 | 0.08 | 0.00 | 88 | 1011.3 |
| 20260905103016 | 24 | 270 | 0.0 | 0.0 | 0.00 | 0.08 | 0.00 | 87 | 1011.3 |
| 20260905101523 | 25 | 270 | 0.0 | 0.0 | 0.00 | 0.08 | 0.00 | 88 | 1011.4 |
| 20260905100013 | 25 | 270 | 0.0 | 0.0 | 0.00 | 0.08 | 0.00 | 87 | 1011.5 |
| 20260905094511 | 25 | 270 | 0.0 | 0.0 | 0.00 | 0.08 | 0.00 | 88 | 1011.4 |
| 20260905093010 | 25 | 270 | 0.0 | 3.2 | 0.00 | 0.08 | 0.00 | 88 | 1011.3 |
| 20260905091514 | 25 | 172 | 0.0 | 4.8 | 0.00 | 0.08 | 0.00 | 87 | 1011.3 |
| 20260905090011 | 25 | 131 | 1.6 | 8.0 | 0.00 | 0.08 | 0.00 | 87 | 1011.3 |
| 20260905084506 | 25 | 169 | 1.6 | 4.8 | 0.00 | 0.08 | 0.00 | 87 | 1011.4 |
| 20260905083005 | 25 | 181 | 1.6 | 6.4 | 0.00 | 0.08 | 0.00 | 86 | 1011.4 |
| 20260905081505 | 25 | 123 | 3.2 | 9.7 | 0.00 | 0.08 | 0.00 | 86 | 1011.4 |
| 20260905080003 | 26 | 216 | 3.2 | 8.0 | 0.00 | 0.08 | 0.00 | 85 | 1011.5 |